Terug naar catalogus

CZ-4 DEB

ActiefSSO
NORAD 20848·DEBRIS·🇨🇳 China

Gelanceerd Sep 3, 1990 vanaf Taiyuan Satellite Launch Center

Loading…

Volgende Passages (komende 24 uur)

TLE

VersSource: Space-Track

Epoch: Sep 14, 2026, 07:59 UTC

1 20848U 90081L   26257.33321360  .00000580  00000-0  51239-3 0  9999
2 20848  99.0656  16.8352 0204556 265.8280 115.3403 13.80079760799167

Volg CZ-4 DEB in realtime met AllMySat

Download on the App Store